Westminster, MD

5:26 PM EST on December 08, 2016 (GMT -0500)
Carroll County Regional-Poage

Weather History for KDMW - March, 2014

Change the Weather History Date:

Friday, March 28, 2014

  Actual Average (KTHV) Record (KTHV)
Temperature  
Mean Temperature 50 °F -  
Max Temperature 64 °F 0 °F 79 °F (1998)
Min Temperature 37 °F - 19 °F (2001)
Degree Days  
Heating Degree Days 14    
Moisture  
Dew Point 42 °F    
Average Humidity 74    
Maximum Humidity 93    
Minimum Humidity 61    
Precipitation  
Precipitation 0.05 in - - ()
Sea Level Pressure  
Sea Level Pressure 30.04 in    
Wind  
Wind Speed 11 mph (South)    
Max Wind Speed 24 mph    
Max Gust Speed 33 mph    
Visibility 10 miles    
Events Rain    
Averages and records for this station are not official NWS values.
T = Trace of Precipitation, MM = Missing Value Source: NWS Daily Summary

Daily Weather History Graph

Daily Weather History Graph

Search for Another Location

Airport or City:

Trip Planner

Search our weather history database for the weather conditions in past years. The results will help you decide how hot, cold, wet, or windy it might be!

Date:

Astronomy

Mar. 28, 2014 Rise Set
Actual Time 6:58 AM EDT 7:28 PM EDT
Civil Twilight 6:31 AM EDT 7:55 PM EDT
Nautical Twilight 5:59 AM EDT 8:27 PM EDT
Astronomical Twilight 5:27 AM EDT 8:59 PM EDT
Moon 5:27 AM EDT (3/28) 5:22 PM EDT (3/28)
Length of Visible Light 13h 23m
Length of Day
12h 29m
Waning Crescent, 6% of the Moon is Illuminated
Mar 28
Waning Crescent
Mar 30
New
Apr 7
First Quarter
Apr 15
Full
Apr 22
Last Quarter

Hourly Weather History & Observations

Time (EDT) Temp. Windchill Dew Point Humidity Pressure Visibility Wind Dir Wind Speed Gust Speed Precip Events Conditions
12:00 AM 37.4 °F 31.4 °F 26.6 °F 65% 30.17 in 10.0 mi SSE 8.1 mph - N/A   Clear
12:20 AM 37.4 °F 30.3 °F 26.6 °F 65% 30.16 in 10.0 mi SSE 10.4 mph - N/A   Clear
12:40 AM 37.4 °F 28.9 °F 26.6 °F 65% 30.15 in 10.0 mi South 13.8 mph 27.6 mph N/A   Clear
1:00 AM 37.4 °F 31.4 °F 26.6 °F 65% 30.14 in 10.0 mi SSE 8.1 mph - N/A   Clear
1:20 AM 37.4 °F 28.5 °F 26.6 °F 65% 30.11 in 10.0 mi SE 15.0 mph 18.4 mph N/A   Clear
1:40 AM 37.4 °F 29.8 °F 26.6 °F 65% 30.12 in 10.0 mi South 11.5 mph - N/A   Scattered Clouds
2:00 AM 37.4 °F 30.3 °F 26.6 °F 65% 30.10 in 10.0 mi SSE 10.4 mph - N/A   Scattered Clouds
2:20 AM 37.4 °F 29.8 °F 26.6 °F 65% 30.10 in 10.0 mi South 11.5 mph - N/A   Scattered Clouds
2:40 AM 37.4 °F 30.3 °F 26.6 °F 65% 30.09 in 10.0 mi SSE 10.4 mph 17.3 mph N/A   Scattered Clouds
3:00 AM 37.4 °F 28.9 °F 26.6 °F 65% 30.08 in 10.0 mi South 13.8 mph - N/A   Mostly Cloudy
3:20 AM 39.2 °F 33.0 °F 26.6 °F 61% 30.08 in 10.0 mi South 9.2 mph - N/A   Scattered Clouds
3:40 AM 39.2 °F 32.5 °F 26.6 °F 61% 30.06 in 10.0 mi South 10.4 mph 16.1 mph N/A   Clear
4:00 AM 39.2 °F 32.5 °F 26.6 °F 61% 30.06 in 10.0 mi SSE 10.4 mph - N/A   Clear
4:20 AM 39.2 °F 33.6 °F 26.6 °F 61% 30.06 in 10.0 mi South 8.1 mph - N/A   Clear
4:40 AM 39.2 °F 33.0 °F 26.6 °F 61% 30.05 in 10.0 mi SSE 9.2 mph - N/A   Scattered Clouds
5:00 AM 39.2 °F 34.2 °F 26.6 °F 61% 30.06 in 10.0 mi South 6.9 mph - N/A   Mostly Cloudy
5:20 AM 39.2 °F 34.2 °F 28.4 °F 65% 30.05 in 10.0 mi SSE 6.9 mph - N/A   Overcast
5:40 AM 41.0 °F 37.1 °F 28.4 °F 61% 30.06 in 10.0 mi SSE 5.8 mph - N/A   Overcast
6:00 AM 41.0 °F 35.8 °F 28.4 °F 61% 30.06 in 10.0 mi SSE 8.1 mph - N/A   Overcast
6:20 AM 41.0 °F 36.4 °F 28.4 °F 61% 30.05 in 10.0 mi SSE 6.9 mph - N/A   Mostly Cloudy
6:40 AM 42.8 °F 38.0 °F 30.2 °F 61% 30.05 in 10.0 mi SSE 8.1 mph - N/A   Scattered Clouds
7:00 AM 42.8 °F 39.3 °F 30.2 °F 61% 30.05 in 10.0 mi SSE 5.8 mph - N/A   Mostly Cloudy
7:20 AM 42.8 °F 37.5 °F 30.2 °F 61% 30.05 in 10.0 mi South 9.2 mph - N/A   Mostly Cloudy
7:40 AM 42.8 °F 38.6 °F 32.0 °F 66% 30.06 in 10.0 mi SSE 6.9 mph - N/A   Overcast
8:00 AM 42.8 °F 39.3 °F 35.6 °F 76% 30.06 in 10.0 mi SSE 5.8 mph - N/A Rain Light Rain
8:20 AM 42.8 °F 38.6 °F 37.4 °F 81% 30.07 in 10.0 mi South 6.9 mph - N/A Rain Light Rain
8:40 AM 44.6 °F 40.7 °F 39.2 °F 81% 30.06 in 10.0 mi South 6.9 mph - 0.01 in Rain Rain
9:00 AM 44.6 °F 40.2 °F 41.0 °F 87% 30.04 in 7.0 mi South 8.1 mph - N/A Rain Rain
9:20 AM 46.4 °F 41.9 °F 42.8 °F 87% 30.05 in 10.0 mi South 9.2 mph 16.1 mph 0.01 in Rain Light Rain
9:40 AM 46.4 °F 41.1 °F 44.6 °F 93% 30.06 in 10.0 mi SSW 11.5 mph 17.3 mph 0.01 in Rain Rain
10:00 AM 46.4 °F 41.9 °F 44.6 °F 93% 30.07 in 5.0 mi SSW 9.2 mph - N/A Rain Rain
10:20 AM 46.4 °F 42.9 °F 44.6 °F 93% 30.05 in 7.0 mi South 6.9 mph - 0.01 in Rain Light Rain
10:40 AM 46.4 °F 41.9 °F 44.6 °F 93% 30.04 in 10.0 mi South 9.2 mph 16.1 mph 0.01 in Rain Light Rain
11:00 AM 46.4 °F 41.5 °F 44.6 °F 93% 30.04 in 10.0 mi South 10.4 mph 17.3 mph N/A   Overcast
11:20 AM 48.2 °F - 46.4 °F 93% 30.04 in 7.0 mi South 12.7 mph 23.0 mph N/A Rain Light Rain
11:40 AM 48.2 °F - 46.4 °F 93% 30.03 in 5.0 mi South 12.7 mph 23.0 mph 0.01 in Rain Rain
12:00 PM 48.2 °F - 46.4 °F 93% 30.03 in 7.0 mi SSW 13.8 mph 23.0 mph N/A Rain Light Rain
12:20 PM 50.0 °F - 46.4 °F 87% 30.02 in 7.0 mi SSW 13.8 mph 21.9 mph N/A Rain Light Rain
12:40 PM 51.8 °F - 48.2 °F 88% 30.01 in 7.0 mi SSW 17.3 mph 21.9 mph 0.01 in Rain Light Rain
1:00 PM 51.8 °F - 48.2 °F 88% 30.00 in 7.0 mi SSW 18.4 mph 21.9 mph N/A Rain Light Rain
1:20 PM 53.6 °F - 50.0 °F 88% 29.99 in 10.0 mi SSW 17.3 mph 24.2 mph N/A   Scattered Clouds
1:40 PM 55.4 °F - 51.8 °F 88% 29.98 in 10.0 mi SSW 17.3 mph 25.3 mph N/A   Mostly Cloudy
2:00 PM 55.4 °F - 51.8 °F 88% 29.98 in 10.0 mi SSW 17.3 mph 25.3 mph N/A   Mostly Cloudy
2:20 PM 57.2 °F - 51.8 °F 82% 29.97 in 10.0 mi SSW 20.7 mph 25.3 mph N/A   Scattered Clouds
2:40 PM 57.2 °F - 51.8 °F 82% 29.97 in 10.0 mi SW 24.2 mph 31.1 mph N/A   Scattered Clouds
3:00 PM 59.0 °F - 51.8 °F 77% 29.97 in 10.0 mi SSW 20.7 mph 26.5 mph N/A   Clear
3:20 PM 60.8 °F - 51.8 °F 72% 29.96 in 10.0 mi SSW 19.6 mph 24.2 mph N/A   Clear
3:40 PM 60.8 °F - 51.8 °F 72% 29.96 in 10.0 mi SSW 18.4 mph 26.5 mph N/A   Clear
4:00 PM 62.6 °F - 51.8 °F 68% 29.97 in 10.0 mi SSW 20.7 mph 27.6 mph N/A   Scattered Clouds
4:20 PM 60.8 °F - 51.8 °F 72% 29.97 in 10.0 mi SSW 23.0 mph 33.4 mph N/A   Mostly Cloudy
4:40 PM 62.6 °F - 51.8 °F 68% 29.97 in 10.0 mi SSW 17.3 mph 24.2 mph N/A   Mostly Cloudy
5:00 PM 62.6 °F - 51.8 °F 68% 29.96 in 10.0 mi SSW 19.6 mph 23.0 mph N/A   Clear
5:20 PM 64.4 °F - 51.8 °F 64% 29.97 in 10.0 mi SSW 19.6 mph 24.2 mph N/A   Clear
5:40 PM 62.6 °F - 51.8 °F 68% 29.98 in 10.0 mi SSW 17.3 mph 24.2 mph N/A   Scattered Clouds
6:00 PM 62.6 °F - 51.8 °F 68% 29.98 in 10.0 mi SSW 18.4 mph 25.3 mph N/A   Scattered Clouds
6:20 PM 62.6 °F - 51.8 °F 68% 29.99 in 10.0 mi SSW 20.7 mph 24.2 mph N/A   Scattered Clouds
6:40 PM 62.6 °F - 51.8 °F 68% 30.00 in 10.0 mi SSW 13.8 mph - N/A   Scattered Clouds
7:00 PM 60.8 °F - 51.8 °F 72% 30.01 in 10.0 mi SSW 13.8 mph 20.7 mph N/A   Scattered Clouds
7:20 PM 60.8 °F - 51.8 °F 72% 30.01 in 10.0 mi SSW 11.5 mph 17.3 mph N/A   Scattered Clouds
7:40 PM 60.8 °F - 51.8 °F 72% 30.02 in 10.0 mi SSW 10.4 mph - N/A   Mostly Cloudy
8:00 PM 60.8 °F - 51.8 °F 72% 30.02 in 10.0 mi SSW 10.4 mph 16.1 mph N/A   Mostly Cloudy
8:20 PM 59.0 °F - 51.8 °F 77% 30.02 in 10.0 mi SSW 12.7 mph 18.4 mph N/A   Scattered Clouds
8:40 PM 59.0 °F - 51.8 °F 77% 30.03 in 10.0 mi SSW 12.7 mph - N/A   Scattered Clouds
9:00 PM 60.8 °F - 51.8 °F 72% 30.03 in 10.0 mi SSW 10.4 mph - N/A   Scattered Clouds
9:20 PM 59.0 °F - 51.8 °F 77% 30.04 in 10.0 mi SSW 8.1 mph - N/A   Clear
9:40 PM 59.0 °F - 51.8 °F 77% 30.04 in 10.0 mi SSW 10.4 mph - N/A   Clear
10:00 PM 59.0 °F - 51.8 °F 77% 30.04 in 10.0 mi SSW 9.2 mph - N/A   Scattered Clouds
10:20 PM 59.0 °F - 51.8 °F 77% 30.05 in 10.0 mi SW 8.1 mph - N/A   Clear
10:40 PM 59.0 °F - 51.8 °F 77% 30.06 in 10.0 mi SW 8.1 mph - N/A   Scattered Clouds
11:00 PM 57.2 °F - 51.8 °F 82% 30.08 in 10.0 mi WNW 5.8 mph - N/A   Mostly Cloudy
11:20 PM 57.2 °F - 50.0 °F 77% 30.09 in 10.0 mi NW 4.6 mph - N/A   Scattered Clouds
11:40 PM 55.4 °F - 50.0 °F 82% 30.10 in 10.0 mi Calm Calm - N/A   Scattered Clouds